FIN1847 EFHK-LATI

Flight info

Callsign FIN1847
Flight time 2h 58m
Altitude 38000
Route KOIVU DCT LARTI DCT NAVOT DCT LUTAL DCT BERIL/N0444F370 DCT NAPOT/N0444F380 DCT SUWGI DCT UNPEG DCT XESNA DCT GERVI DCT VENES M857 OBOSO DCT LENOV DCT IBLIZ DCT PARAK DCT MODRA/N0436F370 DCT AKIKA/N0437F380 DCT INLOT
Aircraft A319/M-SDE1E2E3FGIJ1M1RWXY/LB1

Departure

Time 2026-05-05 12:45
Airport Helsinki Vantaa Airport (EFHK)

Arrival

Time 2026-05-05 15:44
Airport Tirana International Airport Mother Teresa (LATI)
Time Latitude Longitude Altitude Speed Heading
2026-05-05 10:37 60.31146 24.96080 167 ft 0 kts 137°
2026-05-05 11:34 60.31146 24.96079 166 ft 0 kts 137°
2026-05-05 12:29 60.31154 24.96065 139 ft 4 kts 141°
2026-05-05 12:30 60.31176 24.96034 172 ft 4 kts 155°
2026-05-05 12:30 60.31202 24.96016 166 ft 4 kts 172°
2026-05-05 12:30 60.31228 24.96015 166 ft 4 kts 193°
2026-05-05 12:30 60.31252 24.96036 166 ft 4 kts 223°
2026-05-05 12:31 60.31256 24.96043 166 ft 0 kts 227°
2026-05-05 12:35 60.31256 24.96042 166 ft 0 kts 227°
2026-05-05 12:36 60.31247 24.96022 167 ft 4 kts 227°
2026-05-05 12:36 60.31221 24.95961 166 ft 7 kts 242°
2026-05-05 12:36 60.31227 24.95862 167 ft 8 kts 283°
2026-05-05 12:36 60.31228 24.95744 167 ft 9 kts 245°
2026-05-05 12:37 60.31183 24.95644 166 ft 10 kts 227°
2026-05-05 12:37 60.31170 24.95510 166 ft 11 kts 302°
2026-05-05 12:37 60.31232 24.95393 166 ft 13 kts 318°
2026-05-05 12:37 60.31301 24.95269 166 ft 13 kts 318°
2026-05-05 12:38 60.31369 24.95140 166 ft 13 kts 316°
2026-05-05 12:38 60.31431 24.95015 167 ft 6 kts 312°
2026-05-05 12:38 60.31454 24.94972 168 ft 4 kts 335°
2026-05-05 12:38 60.31482 24.94985 168 ft 5 kts 24°
2026-05-05 12:39 60.31510 24.95034 169 ft 5 kts 46°
2026-05-05 12:39 60.31534 24.95091 170 ft 7 kts 48°
2026-05-05 12:39 60.31577 24.95184 170 ft 12 kts 47°
2026-05-05 12:39 60.31643 24.95330 170 ft 14 kts 49°
2026-05-05 12:40 60.31708 24.95472 171 ft 13 kts 49°
2026-05-05 12:40 60.31771 24.95610 170 ft 14 kts 47°
2026-05-05 12:40 60.31836 24.95755 169 ft 14 kts 48°
2026-05-05 12:40 60.31904 24.95900 170 ft 14 kts 46°
2026-05-05 12:41 60.31967 24.96040 169 ft 14 kts 48°
2026-05-05 12:41 60.32033 24.96188 168 ft 14 kts 48°
2026-05-05 12:41 60.32103 24.96341 168 ft 16 kts 47°
2026-05-05 12:41 60.32166 24.96475 168 ft 11 kts 47°
2026-05-05 12:42 60.32221 24.96599 168 ft 13 kts 49°
2026-05-05 12:42 60.32281 24.96737 166 ft 10 kts 47°
2026-05-05 12:42 60.32322 24.96809 166 ft 7 kts 25°
2026-05-05 12:42 60.32364 24.96785 167 ft 5 kts 334°
2026-05-05 12:43 60.32386 24.96763 169 ft 2 kts 334°
2026-05-05 12:43 60.32415 24.96735 172 ft 6 kts 333°
2026-05-05 12:43 60.32449 24.96700 174 ft 7 kts 333°
2026-05-05 12:43 60.32497 24.96650 175 ft 6 kts 302°
2026-05-05 12:44 60.32475 24.96598 175 ft 5 kts 226°
2026-05-05 12:44 60.32404 24.96443 176 ft 42 kts 227°
2026-05-05 12:44 60.32046 24.95651 173 ft 108 kts 227°
2026-05-05 12:44 60.31415 24.94253 215 ft 155 kts 231°
2026-05-05 12:45 60.30658 24.92653 770 ft 161 kts 228°
2026-05-05 12:45 60.29711 24.91232 1305 ft 179 kts 212°
2026-05-05 12:45 60.28562 24.90208 1982 ft 183 kts 208°
2026-05-05 12:45 60.27399 24.89196 2707 ft 180 kts 210°
2026-05-05 12:46 60.26240 24.88098 3306 ft 189 kts 211°
2026-05-05 12:46 60.25019 24.86846 3827 ft 205 kts 212°
2026-05-05 12:46 60.23695 24.85330 4084 ft 228 kts 214°
2026-05-05 12:46 60.22189 24.84131 4832 ft 238 kts 201°
2026-05-05 12:47 60.20586 24.83206 5847 ft 240 kts 199°
2026-05-05 12:47 60.18962 24.82369 6811 ft 241 kts 199°
2026-05-05 12:47 60.17336 24.81581 7815 ft 240 kts 200°
2026-05-05 12:47 60.15716 24.80819 8842 ft 238 kts 201°
2026-05-05 12:48 60.14095 24.80062 9748 ft 244 kts 202°
2026-05-05 12:48 60.12368 24.79238 10084 ft 267 kts 202°
2026-05-05 12:48 60.10480 24.78337 10367 ft 290 kts 201°
2026-05-05 12:48 60.08495 24.77413 10954 ft 300 kts 201°
2026-05-05 12:49 60.06438 24.76481 11753 ft 303 kts 201°
2026-05-05 12:49 60.04366 24.75553 12569 ft 306 kts 201°
2026-05-05 12:49 60.02272 24.74613 13380 ft 309 kts 201°
2026-05-05 12:49 60.00192 24.73672 14081 ft 312 kts 201°
2026-05-05 12:50 59.98068 24.72704 14753 ft 315 kts 201°
2026-05-05 12:50 59.95922 24.71723 15418 ft 318 kts 201°
2026-05-05 12:50 59.93753 24.70733 16079 ft 321 kts 201°
2026-05-05 12:50 59.91555 24.69733 16731 ft 325 kts 201°
2026-05-05 12:51 59.89332 24.68724 17395 ft 328 kts 201°
2026-05-05 12:51 59.87115 24.67721 18034 ft 332 kts 201°
2026-05-05 12:51 59.84852 24.66701 18595 ft 335 kts 201°
2026-05-05 12:51 59.82559 24.65656 19178 ft 337 kts 201°
2026-05-05 12:52 59.80264 24.64579 19757 ft 340 kts 202°
2026-05-05 12:52 59.77961 24.63482 20338 ft 342 kts 202°
2026-05-05 12:52 59.75637 24.62375 20914 ft 345 kts 202°
2026-05-05 12:52 59.73318 24.61274 21473 ft 347 kts 202°
2026-05-05 12:53 59.70950 24.60154 22048 ft 350 kts 202°
2026-05-05 12:53 59.69367 24.59411 22427 ft 352 kts 202°
2026-05-05 12:53 59.66974 24.58291 22975 ft 354 kts 202°
2026-05-05 12:53 59.63782 24.56717 23620 ft 356 kts 204°
2026-05-05 12:54 59.59774 24.54610 24345 ft 360 kts 204°
2026-05-05 12:54 59.57348 24.53316 24769 ft 362 kts 204°
2026-05-05 12:54 59.54901 24.52018 25178 ft 365 kts 204°
2026-05-05 12:55 59.52424 24.50720 25587 ft 368 kts 203°
2026-05-05 12:55 59.49936 24.49432 25988 ft 370 kts 203°
2026-05-05 12:55 59.47441 24.48148 26384 ft 373 kts 203°
2026-05-05 12:55 59.44950 24.46869 26778 ft 375 kts 203°
2026-05-05 12:56 59.42411 24.45567 27171 ft 377 kts 203°
2026-05-05 12:56 59.39859 24.44255 27579 ft 380 kts 203°
2026-05-05 12:56 59.37295 24.42938 27962 ft 383 kts 203°
2026-05-05 12:56 59.34697 24.41611 28341 ft 386 kts 202°
2026-05-05 12:57 59.32067 24.40412 28712 ft 390 kts 200°
2026-05-05 12:57 59.29386 24.39385 29074 ft 394 kts 199°
2026-05-05 12:57 59.26698 24.38465 29425 ft 398 kts 198°
2026-05-05 12:57 59.23955 24.37567 29770 ft 400 kts 198°
2026-05-05 12:58 59.21200 24.36660 30068 ft 403 kts 198°
2026-05-05 12:58 59.18428 24.35724 30346 ft 405 kts 198°
2026-05-05 12:58 59.15639 24.34752 30617 ft 407 kts 198°
2026-05-05 12:58 59.12841 24.33750 30883 ft 409 kts 198°
2026-05-05 12:59 59.10033 24.32734 31143 ft 411 kts 198°
2026-05-05 12:59 59.07241 24.31725 31427 ft 413 kts 198°
2026-05-05 12:59 59.04411 24.30711 31818 ft 412 kts 198°
2026-05-05 13:00 58.98778 24.28720 32571 ft 411 kts 198°
2026-05-05 13:00 58.95966 24.27735 32937 ft 410 kts 198°
2026-05-05 13:01 58.87537 24.24776 33997 ft 410 kts 197°
2026-05-05 13:01 58.84759 24.23799 34287 ft 410 kts 197°
2026-05-05 13:01 58.81945 24.22808 34558 ft 411 kts 197°
2026-05-05 13:01 58.79133 24.21819 34803 ft 412 kts 197°
2026-05-05 13:02 58.76306 24.20832 35048 ft 412 kts 197°
2026-05-05 13:02 58.73478 24.19850 35287 ft 413 kts 197°
2026-05-05 13:02 58.70636 24.18868 35521 ft 414 kts 196°
2026-05-05 13:02 58.67799 24.17892 35739 ft 415 kts 196°
2026-05-05 13:03 58.62127 24.15934 35826 ft 411 kts 196°
2026-05-05 13:03 58.56544 24.13990 35832 ft 410 kts 196°
2026-05-05 13:04 58.50908 24.12044 35834 ft 411 kts 196°
2026-05-05 13:04 58.45295 24.10124 35835 ft 411 kts 196°
2026-05-05 13:05 58.39660 24.08210 35833 ft 411 kts 196°
2026-05-05 13:05 58.34008 24.06292 35826 ft 411 kts 196°
2026-05-05 13:06 58.28380 24.04374 35829 ft 411 kts 196°
2026-05-05 13:06 58.22728 24.02453 35834 ft 412 kts 196°
2026-05-05 13:07 58.17117 24.00555 35840 ft 412 kts 196°
2026-05-05 13:07 58.11475 23.98672 35845 ft 412 kts 196°
2026-05-05 13:08 58.05818 23.96786 35846 ft 412 kts 196°
2026-05-05 13:08 58.00196 23.94906 35847 ft 412 kts 196°
2026-05-05 13:09 57.94552 23.93017 35844 ft 411 kts 197°
2026-05-05 13:09 57.88915 23.91137 35842 ft 411 kts 197°
2026-05-05 13:10 57.83269 23.89270 35843 ft 411 kts 197°
2026-05-05 13:10 57.77664 23.87421 35846 ft 411 kts 197°
2026-05-05 13:11 57.72025 23.85574 35850 ft 410 kts 197°
2026-05-05 13:11 57.66424 23.83741 35849 ft 410 kts 197°
2026-05-05 13:12 57.60784 23.81899 35854 ft 410 kts 197°
2026-05-05 13:12 57.55192 23.80078 35868 ft 410 kts 197°
2026-05-05 13:13 57.49562 23.78251 35857 ft 409 kts 197°
2026-05-05 13:13 57.43971 23.76444 35864 ft 409 kts 197°
2026-05-05 13:14 57.38354 23.74628 35867 ft 408 kts 197°
2026-05-05 13:14 57.32774 23.72831 35866 ft 408 kts 197°
2026-05-05 13:15 57.27167 23.71034 35866 ft 408 kts 197°
2026-05-05 13:15 57.21602 23.69249 35864 ft 408 kts 197°
2026-05-05 13:16 57.15998 23.67468 35859 ft 407 kts 196°
2026-05-05 13:16 57.10400 23.65690 35846 ft 407 kts 196°
2026-05-05 13:17 57.04851 23.63931 35848 ft 407 kts 196°
2026-05-05 13:17 56.99271 23.62166 35846 ft 406 kts 196°
2026-05-05 13:18 56.93698 23.60410 35844 ft 406 kts 196°
2026-05-05 13:18 56.88125 23.58659 35850 ft 405 kts 196°
2026-05-05 13:19 56.82599 23.56932 35850 ft 405 kts 196°
2026-05-05 13:19 56.77035 23.55201 35847 ft 405 kts 196°
2026-05-05 13:20 56.71482 23.53473 35845 ft 404 kts 196°
2026-05-05 13:20 56.65966 23.51754 35846 ft 404 kts 196°
2026-05-05 13:21 56.60405 23.50031 35844 ft 405 kts 196°
2026-05-05 13:21 56.54845 23.48329 35843 ft 405 kts 196°
2026-05-05 13:22 56.49288 23.46624 35839 ft 404 kts 196°
2026-05-05 13:22 56.43760 23.44930 35842 ft 404 kts 196°
2026-05-05 13:23 56.38193 23.43227 35841 ft 405 kts 196°
2026-05-05 13:23 56.32606 23.41739 35839 ft 407 kts 193°
2026-05-05 13:24 56.26949 23.40740 35840 ft 409 kts 192°
2026-05-05 13:24 56.21269 23.39822 35842 ft 409 kts 192°
2026-05-05 13:25 56.15640 23.38814 35855 ft 409 kts 193°
2026-05-05 13:25 56.09962 23.37747 35859 ft 409 kts 193°
2026-05-05 13:26 56.04297 23.36684 35863 ft 409 kts 193°
2026-05-05 13:26 55.98660 23.35634 35865 ft 410 kts 192°
2026-05-05 13:27 55.92967 23.34592 35865 ft 410 kts 192°
2026-05-05 13:27 55.87282 23.33544 35866 ft 411 kts 192°
2026-05-05 13:28 55.81625 23.32500 35866 ft 411 kts 192°
2026-05-05 13:28 55.75923 23.31458 35862 ft 411 kts 192°
2026-05-05 13:29 55.70231 23.30425 35861 ft 411 kts 192°
2026-05-05 13:29 55.64522 23.29393 35861 ft 412 kts 192°
2026-05-05 13:30 55.58845 23.28372 35855 ft 412 kts 192°
2026-05-05 13:30 55.53118 23.27334 35859 ft 412 kts 192°
2026-05-05 13:31 55.47460 23.26326 35860 ft 411 kts 192°
2026-05-05 13:31 55.41743 23.25282 35861 ft 411 kts 193°
2026-05-05 13:32 55.36105 23.23849 35867 ft 409 kts 195°
2026-05-05 13:32 55.30503 23.22212 35866 ft 409 kts 195°
2026-05-05 13:33 55.24868 23.20638 35867 ft 409 kts 195°
2026-05-05 13:33 55.19255 23.19141 35873 ft 410 kts 194°
2026-05-05 13:34 55.13628 23.17660 35868 ft 409 kts 194°
2026-05-05 13:34 55.07989 23.16168 35879 ft 409 kts 194°
2026-05-05 13:35 55.02343 23.14670 35871 ft 409 kts 194°
2026-05-05 13:35 54.96709 23.13178 35869 ft 409 kts 194°
2026-05-05 13:36 54.91099 23.11704 35870 ft 409 kts 194°
2026-05-05 13:36 54.85455 23.10230 35867 ft 409 kts 194°
2026-05-05 13:37 54.79818 23.08758 35867 ft 409 kts 194°
2026-05-05 13:37 54.74198 23.07284 35869 ft 409 kts 194°
2026-05-05 13:38 54.68592 23.05805 35865 ft 409 kts 194°
2026-05-05 13:38 54.62948 23.04342 35863 ft 409 kts 194°
2026-05-05 13:39 54.58253 23.03143 35861 ft 410 kts 194°
2026-05-05 13:39 54.51680 23.01450 35860 ft 410 kts 194°
2026-05-05 13:40 54.46947 23.00228 35863 ft 410 kts 194°
2026-05-05 13:40 54.41322 22.98783 35860 ft 411 kts 194°
2026-05-05 13:41 54.35654 22.97328 35862 ft 412 kts 194°
2026-05-05 13:41 54.29970 22.95872 35865 ft 412 kts 193°
2026-05-05 13:42 54.24309 22.94432 35860 ft 412 kts 193°
2026-05-05 13:42 54.18657 22.92997 35861 ft 413 kts 193°
2026-05-05 13:43 54.12965 22.91547 35852 ft 413 kts 193°
2026-05-05 13:43 54.07258 22.90096 35859 ft 414 kts 193°
2026-05-05 13:44 54.01610 22.88237 35860 ft 412 kts 197°
2026-05-05 13:44 53.96071 22.85993 35856 ft 411 kts 198°
2026-05-05 13:45 53.90486 22.83743 35861 ft 412 kts 197°
2026-05-05 13:45 53.84869 22.81596 35859 ft 413 kts 197°
2026-05-05 13:46 53.79298 22.79509 35854 ft 413 kts 197°
2026-05-05 13:46 53.73674 22.77399 35851 ft 413 kts 197°
2026-05-05 13:47 53.68049 22.75291 35853 ft 413 kts 197°
2026-05-05 13:47 53.62418 22.73182 35844 ft 414 kts 197°
2026-05-05 13:48 53.56819 22.71097 35844 ft 414 kts 197°
2026-05-05 13:48 53.51185 22.69000 35845 ft 415 kts 197°
2026-05-05 13:49 53.45571 22.66904 35839 ft 415 kts 197°
2026-05-05 13:49 53.39925 22.64808 35838 ft 415 kts 196°
2026-05-05 13:50 53.34265 22.62717 35836 ft 416 kts 196°
2026-05-05 13:50 53.28647 22.60644 35834 ft 416 kts 196°
2026-05-05 13:51 53.22974 22.58562 35832 ft 417 kts 196°
2026-05-05 13:51 53.17295 22.56487 35828 ft 417 kts 196°
2026-05-05 13:52 53.11659 22.54428 35825 ft 417 kts 196°
2026-05-05 13:52 53.05974 22.52355 35822 ft 418 kts 196°
2026-05-05 13:53 53.00278 22.50281 35821 ft 418 kts 196°
2026-05-05 13:53 52.94623 22.48236 35818 ft 418 kts 196°
2026-05-05 13:54 52.88929 22.46179 35820 ft 418 kts 196°
2026-05-05 13:54 52.83220 22.44105 35813 ft 419 kts 196°
2026-05-05 13:55 52.77545 22.42052 35813 ft 419 kts 196°
2026-05-05 13:55 52.71829 22.40002 35812 ft 419 kts 196°
2026-05-05 13:56 52.66117 22.37959 35811 ft 420 kts 196°
2026-05-05 13:56 52.60439 22.35923 35813 ft 420 kts 196°
2026-05-05 13:57 52.54712 22.33890 35812 ft 420 kts 196°
2026-05-05 13:57 52.49024 22.31886 35813 ft 420 kts 196°
2026-05-05 13:58 52.43302 22.29861 35815 ft 420 kts 196°
2026-05-05 13:58 52.37577 22.27830 35813 ft 420 kts 196°
2026-05-05 13:59 52.29014 22.24824 35812 ft 421 kts 195°
2026-05-05 14:00 52.21375 22.22144 35811 ft 421 kts 195°
2026-05-05 14:00 52.14716 22.19822 35814 ft 421 kts 195°
2026-05-05 14:01 52.08939 22.18037 35804 ft 422 kts 193°
2026-05-05 14:01 52.03128 22.16403 35803 ft 423 kts 193°
2026-05-05 14:02 51.97361 22.14764 35811 ft 423 kts 194°
2026-05-05 14:02 51.91556 22.13066 35810 ft 423 kts 194°
2026-05-05 14:03 51.85764 22.11368 35806 ft 423 kts 193°
2026-05-05 14:03 51.79995 22.09699 35811 ft 423 kts 193°
2026-05-05 14:04 51.74181 22.08014 35815 ft 424 kts 193°
2026-05-05 14:04 51.68389 22.06341 35817 ft 424 kts 193°
2026-05-05 14:05 51.62569 22.04660 35816 ft 424 kts 193°
2026-05-05 14:05 51.56742 22.02987 35817 ft 425 kts 193°
2026-05-05 14:06 51.50923 22.01318 35819 ft 425 kts 193°
2026-05-05 14:06 51.45127 21.99651 35816 ft 425 kts 193°
2026-05-05 14:07 51.39298 21.97984 35824 ft 425 kts 193°
2026-05-05 14:07 51.33461 21.96321 35822 ft 425 kts 193°
2026-05-05 14:08 51.27662 21.94675 35820 ft 425 kts 193°
2026-05-05 14:08 51.21832 21.93024 35814 ft 425 kts 193°
2026-05-05 14:09 51.15992 21.91379 35816 ft 426 kts 193°
2026-05-05 14:09 51.10182 21.89751 35817 ft 426 kts 193°
2026-05-05 14:10 51.04339 21.88115 35817 ft 426 kts 193°
2026-05-05 14:10 50.98490 21.86470 35822 ft 426 kts 193°
2026-05-05 14:11 50.92680 21.84847 35822 ft 427 kts 193°
2026-05-05 14:11 50.86820 21.83219 35823 ft 427 kts 193°
2026-05-05 14:12 50.80994 21.81601 35827 ft 427 kts 193°
2026-05-05 14:12 50.75126 21.79974 35827 ft 427 kts 193°
2026-05-05 14:13 50.69286 21.78362 35830 ft 428 kts 193°
2026-05-05 14:13 50.63409 21.76748 35833 ft 428 kts 193°
2026-05-05 14:14 50.57775 21.73920 35832 ft 424 kts 204°
2026-05-05 14:14 50.52297 21.70607 35831 ft 424 kts 204°
2026-05-05 14:15 50.46772 21.67294 35832 ft 424 kts 204°
2026-05-05 14:15 50.41289 21.64007 35833 ft 424 kts 203°
2026-05-05 14:16 50.35757 21.60701 35831 ft 424 kts 203°
2026-05-05 14:16 50.30228 21.57404 35838 ft 425 kts 203°
2026-05-05 14:17 50.24730 21.54123 35841 ft 425 kts 203°
2026-05-05 14:17 50.19205 21.50839 35844 ft 425 kts 203°
2026-05-05 14:18 50.13666 21.47559 35843 ft 424 kts 203°
2026-05-05 14:18 50.08162 21.44313 35842 ft 424 kts 203°
2026-05-05 14:19 50.02639 21.41054 35844 ft 424 kts 203°
2026-05-05 14:19 49.97156 21.37820 35848 ft 423 kts 203°
2026-05-05 14:20 49.91638 21.34581 35849 ft 423 kts 203°
2026-05-05 14:20 49.86125 21.31359 35853 ft 423 kts 203°
2026-05-05 14:21 49.80650 21.28168 35852 ft 423 kts 203°
2026-05-05 14:21 49.75140 21.24960 35853 ft 423 kts 203°
2026-05-05 14:22 49.69618 21.21743 35855 ft 423 kts 203°
2026-05-05 14:22 49.64124 21.18556 35862 ft 424 kts 203°
2026-05-05 14:23 49.58594 21.15366 35861 ft 424 kts 203°
2026-05-05 14:23 49.53056 21.12179 35869 ft 424 kts 203°
2026-05-05 14:24 49.47556 21.09012 35869 ft 424 kts 203°
2026-05-05 14:24 49.42009 21.05832 35877 ft 425 kts 203°
2026-05-05 14:25 49.36470 21.02663 35881 ft 425 kts 203°
2026-05-05 14:25 49.30731 21.00341 35887 ft 429 kts 191°
2026-05-05 14:26 49.24847 20.98974 35891 ft 429 kts 191°
2026-05-05 14:26 49.18942 20.97603 35901 ft 429 kts 191°
2026-05-05 14:27 49.13029 20.96222 35908 ft 429 kts 191°
2026-05-05 14:27 49.07155 20.94857 35897 ft 429 kts 191°
2026-05-05 14:28 49.02244 20.93717 35899 ft 429 kts 191°
2026-05-05 14:28 48.96345 20.92352 35911 ft 428 kts 191°
2026-05-05 14:29 48.90438 20.90988 35910 ft 428 kts 191°
2026-05-05 14:29 48.84575 20.89627 35916 ft 428 kts 191°
2026-05-05 14:30 48.78695 20.88273 35915 ft 427 kts 191°
2026-05-05 14:30 48.72818 20.86927 35920 ft 427 kts 191°
2026-05-05 14:31 48.66926 20.85577 35916 ft 427 kts 191°
2026-05-05 14:31 48.61070 20.84242 35910 ft 428 kts 191°
2026-05-05 14:32 48.55166 20.82903 35906 ft 428 kts 191°
2026-05-05 14:32 48.49293 20.81569 35904 ft 429 kts 191°
2026-05-05 14:33 48.43391 20.80227 35902 ft 429 kts 191°
2026-05-05 14:33 48.37470 20.78888 35906 ft 430 kts 191°
2026-05-05 14:34 48.31546 20.77550 35896 ft 430 kts 191°
2026-05-05 14:34 48.25673 20.75877 35900 ft 429 kts 195°
2026-05-05 14:35 48.19887 20.73856 35901 ft 429 kts 195°
2026-05-05 14:35 48.14069 20.71829 35899 ft 430 kts 195°
2026-05-05 14:36 48.08213 20.69888 35905 ft 431 kts 194°
2026-05-05 14:36 48.02353 20.67998 35903 ft 431 kts 194°
2026-05-05 14:37 47.96488 20.66101 35911 ft 431 kts 194°
2026-05-05 14:37 47.90614 20.64181 35910 ft 431 kts 194°
2026-05-05 14:38 47.84781 20.62280 35918 ft 431 kts 194°
2026-05-05 14:38 47.78911 20.60375 35918 ft 431 kts 194°
2026-05-05 14:39 47.73074 20.58488 35918 ft 431 kts 194°
2026-05-05 14:39 47.67206 20.56601 35920 ft 431 kts 194°
2026-05-05 14:40 47.61331 20.54715 35924 ft 431 kts 194°
2026-05-05 14:40 47.55472 20.52836 35922 ft 431 kts 194°
2026-05-05 14:41 47.49638 20.50978 35919 ft 431 kts 194°
2026-05-05 14:41 47.43775 20.49107 35915 ft 431 kts 194°
2026-05-05 14:42 47.37913 20.47234 35925 ft 431 kts 194°
2026-05-05 14:42 47.32037 20.45362 35929 ft 431 kts 194°
2026-05-05 14:43 47.26189 20.43507 35937 ft 431 kts 194°
2026-05-05 14:43 47.20307 20.41651 35938 ft 431 kts 194°
2026-05-05 14:44 47.14474 20.39808 35940 ft 431 kts 194°
2026-05-05 14:44 47.08589 20.37946 35939 ft 431 kts 194°
2026-05-05 14:45 47.02711 20.36093 35939 ft 431 kts 194°
2026-05-05 14:45 46.96864 20.34266 35931 ft 431 kts 194°
2026-05-05 14:46 46.91004 20.32433 35925 ft 431 kts 194°
2026-05-05 14:46 46.85139 20.30598 35922 ft 431 kts 194°
2026-05-05 14:47 46.79303 20.28786 35922 ft 431 kts 194°
2026-05-05 14:47 46.73425 20.26959 35915 ft 431 kts 194°
2026-05-05 14:48 46.67543 20.25124 35917 ft 431 kts 194°
2026-05-05 14:48 46.61707 20.23314 35916 ft 432 kts 194°
2026-05-05 14:49 46.55825 20.21500 35918 ft 432 kts 194°
2026-05-05 14:49 46.49943 20.19693 35924 ft 432 kts 194°
2026-05-05 14:50 46.44057 20.17875 35927 ft 432 kts 194°
2026-05-05 14:50 46.38200 20.16082 35924 ft 432 kts 194°
2026-05-05 14:51 46.32327 20.14291 35923 ft 432 kts 194°
2026-05-05 14:51 46.26440 20.12490 35920 ft 432 kts 194°
2026-05-05 14:52 46.20549 20.10696 35926 ft 432 kts 194°
2026-05-05 14:52 46.14621 20.09126 35926 ft 434 kts 188°
2026-05-05 14:53 46.08607 20.08110 35928 ft 434 kts 188°
2026-05-05 14:53 46.02665 20.07110 35926 ft 434 kts 188°
2026-05-05 14:54 45.96633 20.06100 35924 ft 434 kts 188°
2026-05-05 14:54 45.90650 20.05095 35927 ft 434 kts 189°
2026-05-05 14:55 45.84637 20.04084 35923 ft 434 kts 188°
2026-05-05 14:55 45.78632 20.03082 35922 ft 434 kts 189°
2026-05-05 14:56 45.72611 20.02080 35923 ft 435 kts 189°
2026-05-05 14:56 45.66595 20.01073 35921 ft 435 kts 189°
2026-05-05 14:57 45.60616 20.00075 35923 ft 436 kts 189°
2026-05-05 14:57 45.54601 19.99084 35928 ft 436 kts 189°
2026-05-05 14:58 45.48552 19.98087 35927 ft 436 kts 189°
2026-05-05 14:58 45.42507 19.97085 35932 ft 437 kts 189°
2026-05-05 14:59 45.36490 19.96092 35932 ft 437 kts 189°
2026-05-05 14:59 45.30436 19.95105 35939 ft 437 kts 189°
2026-05-05 15:00 45.25397 19.94281 35939 ft 437 kts 189°
2026-05-05 15:00 45.18351 19.93131 35940 ft 437 kts 189°
2026-05-05 15:01 45.12300 19.92139 35940 ft 437 kts 189°
2026-05-05 15:01 45.06245 19.91149 35945 ft 437 kts 189°
2026-05-05 15:02 45.00219 19.90173 35944 ft 437 kts 189°
2026-05-05 15:02 44.94179 19.89199 35947 ft 438 kts 189°
2026-05-05 15:03 44.88115 19.88212 35944 ft 438 kts 189°
2026-05-05 15:03 44.82095 19.87240 35940 ft 438 kts 189°
2026-05-05 15:04 44.76020 19.86268 35941 ft 438 kts 189°
2026-05-05 15:04 44.69954 19.85292 35946 ft 438 kts 190°
2026-05-05 15:05 44.60896 19.83834 35952 ft 438 kts 190°
2026-05-05 15:06 44.54828 19.82869 35951 ft 438 kts 190°
2026-05-05 15:06 44.48779 19.81910 35949 ft 438 kts 190°
2026-05-05 15:07 44.42756 19.80946 35949 ft 438 kts 190°
2026-05-05 15:07 44.36682 19.79976 35949 ft 438 kts 190°
2026-05-05 15:08 44.30625 19.79016 35950 ft 438 kts 190°
2026-05-05 15:08 44.24554 19.78059 35945 ft 439 kts 190°
2026-05-05 15:09 44.18475 19.77101 35947 ft 439 kts 190°
2026-05-05 15:09 44.12437 19.76143 35943 ft 439 kts 191°
2026-05-05 15:10 44.06358 19.75181 35942 ft 439 kts 190°
2026-05-05 15:10 44.00266 19.74225 35947 ft 441 kts 190°
2026-05-05 15:11 43.94189 19.73269 35946 ft 441 kts 190°
2026-05-05 15:11 43.88144 19.72338 35949 ft 442 kts 190°
2026-05-05 15:12 43.82057 19.71394 35955 ft 442 kts 190°
2026-05-05 15:12 43.75925 19.70435 35957 ft 442 kts 190°
2026-05-05 15:13 43.69852 19.69480 35965 ft 442 kts 190°
2026-05-05 15:13 43.63735 19.68537 35975 ft 442 kts 190°
2026-05-05 15:14 43.57617 19.67599 35976 ft 442 kts 190°
2026-05-05 15:14 43.51494 19.66646 35991 ft 441 kts 191°
2026-05-05 15:15 43.46417 19.65851 35990 ft 441 kts 191°
2026-05-05 15:15 43.39315 19.64757 35996 ft 441 kts 191°
2026-05-05 15:16 43.34194 19.63973 36001 ft 441 kts 191°
2026-05-05 15:16 43.28121 19.63047 36010 ft 442 kts 190°
2026-05-05 15:17 43.21992 19.62121 36015 ft 442 kts 191°
2026-05-05 15:17 43.15922 19.61191 36022 ft 441 kts 191°
2026-05-05 15:18 43.09817 19.60250 36030 ft 441 kts 191°
2026-05-05 15:18 43.03695 19.59322 36042 ft 442 kts 191°
2026-05-05 15:19 42.97534 19.58966 36046 ft 445 kts 182°
2026-05-05 15:19 42.91329 19.59175 36052 ft 446 kts 182°
2026-05-05 15:20 42.85152 19.59387 36052 ft 446 kts 183°
2026-05-05 15:20 42.78925 19.59590 36046 ft 447 kts 183°
2026-05-05 15:20 42.75796 19.59686 35627 ft 451 kts 183°
2026-05-05 15:21 42.72612 19.59779 34313 ft 467 kts 182°
2026-05-05 15:21 42.69384 19.59877 33525 ft 463 kts 182°
2026-05-05 15:21 42.66219 19.59988 33078 ft 447 kts 182°
2026-05-05 15:21 42.63146 19.60099 32511 ft 435 kts 182°
2026-05-05 15:22 42.60160 19.60204 31980 ft 423 kts 182°
2026-05-05 15:22 42.57252 19.60301 31462 ft 412 kts 182°
2026-05-05 15:22 42.54447 19.60343 30988 ft 400 kts 187°
2026-05-05 15:22 42.51732 19.59950 30520 ft 389 kts 195°
2026-05-05 15:23 42.49087 19.59213 30062 ft 386 kts 196°
2026-05-05 15:23 42.46465 19.58484 29618 ft 384 kts 195°
2026-05-05 15:23 42.43855 19.57769 29176 ft 381 kts 195°
2026-05-05 15:23 42.41249 19.57061 28754 ft 379 kts 195°
2026-05-05 15:24 42.38669 19.56359 28330 ft 377 kts 195°
2026-05-05 15:24 42.36130 19.55668 27926 ft 375 kts 195°
2026-05-05 15:24 42.33547 19.54965 27515 ft 372 kts 195°
2026-05-05 15:24 42.31053 19.54288 27117 ft 369 kts 195°
2026-05-05 15:25 42.28531 19.53603 26729 ft 367 kts 195°
2026-05-05 15:25 42.26032 19.52923 26338 ft 365 kts 195°
2026-05-05 15:25 42.23546 19.52245 25943 ft 363 kts 195°
2026-05-05 15:25 42.21085 19.51575 25549 ft 360 kts 195°
2026-05-05 15:26 42.18622 19.50907 25155 ft 358 kts 195°
2026-05-05 15:26 42.16222 19.50258 24760 ft 355 kts 195°
2026-05-05 15:26 42.13805 19.49603 24353 ft 353 kts 195°
2026-05-05 15:26 42.11400 19.48951 23942 ft 350 kts 195°
2026-05-05 15:27 42.09015 19.48307 23497 ft 347 kts 195°
2026-05-05 15:27 42.06651 19.47669 23063 ft 344 kts 195°
2026-05-05 15:27 42.04314 19.47037 22647 ft 342 kts 195°
2026-05-05 15:27 42.01987 19.46409 22240 ft 340 kts 195°
2026-05-05 15:28 41.99699 19.45817 21824 ft 338 kts 191°
2026-05-05 15:28 41.97345 19.45643 21412 ft 339 kts 180°
2026-05-05 15:28 41.94995 19.46033 20993 ft 339 kts 172°
2026-05-05 15:28 41.92675 19.46600 20571 ft 337 kts 173°
2026-05-05 15:29 41.90372 19.47150 20155 ft 334 kts 173°
2026-05-05 15:29 41.88083 19.47690 19748 ft 332 kts 173°
2026-05-05 15:29 41.85831 19.48219 19343 ft 330 kts 173°
2026-05-05 15:29 41.83581 19.48750 18940 ft 327 kts 172°
2026-05-05 15:30 41.81351 19.49277 18545 ft 325 kts 172°
2026-05-05 15:30 41.79128 19.49803 18113 ft 322 kts 172°
2026-05-05 15:30 41.76923 19.50324 17716 ft 320 kts 172°
2026-05-05 15:30 41.74757 19.50838 17330 ft 318 kts 172°
2026-05-05 15:31 41.72588 19.51354 16940 ft 315 kts 172°
2026-05-05 15:31 41.70434 19.51866 16555 ft 313 kts 172°
2026-05-05 15:31 41.68288 19.52376 16182 ft 311 kts 172°
2026-05-05 15:31 41.66163 19.52878 15817 ft 309 kts 172°
2026-05-05 15:32 41.64047 19.53375 15447 ft 307 kts 172°
2026-05-05 15:32 41.61938 19.53790 15076 ft 304 kts 174°
2026-05-05 15:32 41.59842 19.54095 14708 ft 302 kts 176°
2026-05-05 15:32 41.57749 19.54355 14338 ft 300 kts 176°
2026-05-05 15:33 41.55700 19.54597 13971 ft 298 kts 176°
2026-05-05 15:33 41.53646 19.54846 13571 ft 296 kts 176°
2026-05-05 15:33 41.51601 19.55109 13195 ft 294 kts 175°
2026-05-05 15:33 41.49571 19.55383 12821 ft 293 kts 175°
2026-05-05 15:34 41.47546 19.55659 12449 ft 291 kts 175°
2026-05-05 15:34 41.45509 19.55937 12138 ft 300 kts 175°
2026-05-05 15:34 41.43415 19.56219 12100 ft 310 kts 175°
2026-05-05 15:34 41.41219 19.56514 11453 ft 316 kts 175°
2026-05-05 15:35 41.39041 19.56809 10756 ft 316 kts 175°
2026-05-05 15:35 41.36915 19.57100 10549 ft 298 kts 175°
2026-05-05 15:35 41.34860 19.57381 10070 ft 293 kts 175°
2026-05-05 15:35 41.32842 19.57657 9960 ft 292 kts 175°
2026-05-05 15:36 41.30824 19.57933 9497 ft 289 kts 175°
2026-05-05 15:36 41.28874 19.58198 9100 ft 283 kts 175°
2026-05-05 15:36 41.26901 19.58466 8720 ft 284 kts 175°
2026-05-05 15:36 41.24946 19.58729 8333 ft 282 kts 175°
2026-05-05 15:37 41.22992 19.58989 7953 ft 280 kts 175°
2026-05-05 15:37 41.21060 19.59247 7577 ft 278 kts 175°
2026-05-05 15:37 41.19189 19.59796 7184 ft 276 kts 153°
2026-05-05 15:37 41.17813 19.61526 6803 ft 276 kts 119°
2026-05-05 15:38 41.17386 19.63985 6391 ft 277 kts 90°
2026-05-05 15:38 41.17495 19.66507 5969 ft 278 kts 85°
2026-05-05 15:38 41.17731 19.69045 5555 ft 276 kts 83°
2026-05-05 15:38 41.18000 19.71558 5143 ft 270 kts 80°
2026-05-05 15:39 41.18732 19.73779 4748 ft 261 kts 46°
2026-05-05 15:39 41.20241 19.74946 4383 ft 249 kts
2026-05-05 15:39 41.21927 19.75023 4036 ft 239 kts 354°
2026-05-05 15:39 41.23559 19.74785 3702 ft 232 kts 350°
2026-05-05 15:40 41.25107 19.74487 3429 ft 226 kts 349°
2026-05-05 15:40 41.26676 19.74184 3103 ft 221 kts 350°
2026-05-05 15:40 41.28149 19.73924 2810 ft 215 kts 351°
2026-05-05 15:40 41.29606 19.73691 2501 ft 205 kts 351°
2026-05-05 15:41 41.30976 19.73487 2244 ft 192 kts 351°
2026-05-05 15:41 41.32259 19.73307 1968 ft 173 kts 351°
2026-05-05 15:41 41.33398 19.73149 1714 ft 157 kts 351°
2026-05-05 15:41 41.34448 19.73016 1373 ft 148 kts 350°
2026-05-05 15:42 41.35447 19.72914 1076 ft 139 kts 349°
2026-05-05 15:42 41.36396 19.72786 972 ft 135 kts 347°
2026-05-05 15:42 41.37323 19.72618 770 ft 136 kts 348°
2026-05-05 15:42 41.38254 19.72490 612 ft 135 kts 344°
2026-05-05 15:43 41.39182 19.72363 451 ft 134 kts 348°
2026-05-05 15:43 41.40093 19.72246 219 ft 133 kts 347°
2026-05-05 15:43 41.40956 19.72120 136 ft 108 kts 351°
2026-05-05 15:43 41.41545 19.72047 125 ft 61 kts 354°
2026-05-05 15:44 41.41816 19.72005 124 ft 18 kts 354°
2026-05-05 15:44 41.41877 19.71931 123 ft 11 kts 266°
2026-05-05 15:44 41.41870 19.71851 124 ft 9 kts 266°
2026-05-05 15:44 41.41865 19.71773 124 ft 6 kts 264°
2026-05-05 15:45 41.41861 19.71707 124 ft 8 kts 264°
2026-05-05 15:45 41.41859 19.71628 124 ft 9 kts 284°
2026-05-05 15:45 41.41874 19.71572 122 ft 4 kts 279°
2026-05-05 15:45 41.41873 19.71555 124 ft 1 kts 265°
2026-05-05 15:46 41.41872 19.71543 124 ft 1 kts 264°
2026-05-05 15:46 41.41871 19.71531 122 ft 1 kts 264°
2026-05-05 15:46 41.41871 19.71526 123 ft 0 kts 264°
2026-05-05 15:55 41.41871 19.71527 146 ft 0 kts 264°